Total_Precipitation_Accumulation
0.68 0.51 0.41 0.42 0.43 0.42 0.46 0.60 1.02 1.51 1.93 2.20 2.38 2.41 2.32 2.06 1.79 1.76 1.84 1.84 1.76 1.58 1.47 1.34 1.23 1.21 1.20 1.15 1.05 1.04 1.11 1.24 1.33 1.27 1.25 1.32 1.39 1.31 1.16 1.11 1.03 1.01 0.95 0.91
0.57 0.47 0.45 0.56 0.54 0.58 0.63 0.70 0.93 1.38 1.97 2.07 2.04 1.86 1.85 1.82 1.70 1.80 1.95 2.02 1.95 1.77 1.59 1.41 1.28 1.21 1.18 1.11 0.98 0.97 1.02 1.15 1.23 1.22 1.20 1.22 1.26 1.22 1.16 1.10 1.05 1.01 0.98 0.95
0.79 0.60 0.75 1.15 0.91 0.87 0.93 0.93 1.07 1.48 1.67 1.50 1.55 1.57 1.63 1.67 1.71 1.89 2.03 2.06 1.98 1.87 1.69 1.49 1.39 1.29 1.30 1.20 1.06 1.07 1.08 1.09 1.15 1.18 1.22 1.23 1.22 1.20 1.20 1.21 1.20 1.10 1.01 0.97
0.82 0.98 1.57 1.46 0.91 0.86 0.93 0.97 0.92 1.00 1.02 1.11 1.24 1.37 1.55 1.64 1.78 1.99 2.12 2.22 2.14 1.92 1.73 1.50 1.34 1.28 1.25 1.17 1.09 1.14 1.09 1.05 1.06 1.06 1.08 1.08 1.14 1.19 1.19 1.19 1.13 1.07 1.00 0.96
1.06 1.40 1.62 1.36 0.88 0.83 1.02 1.20 0.91 0.83 0.82 0.92 1.01 1.19 1.66 1.76 1.81 1.97 2.09 2.08 2.02 1.83 1.69 1.56 1.40 1.31 1.26 1.20 1.18 1.11 1.04 0.99 0.93 0.87 0.90 0.93 1.00 1.12 1.22 1.20 1.08 0.98 0.91 0.89
1.21 1.69 2.10 1.72 0.81 0.56 0.87 1.57 1.06 0.74 0.69 0.87 1.06 1.41 1.63 1.55 1.56 1.60 1.62 1.56 1.53 1.47 1.43 1.41 1.29 1.23 1.23 1.23 1.19 1.08 0.97 0.89 0.81 0.81 0.86 0.88 0.94 1.07 1.15 1.19 1.06 0.88 0.80 0.82
1.26 1.66 1.86 1.01 0.57 0.63 1.44 1.79 1.22 0.99 0.88 0.92 1.14 1.29 1.20 1.17 1.27 1.33 1.36 1.32 1.23 1.21 1.27 1.26 1.17 1.19 1.21 1.17 1.09 0.95 0.87 0.82 0.81 0.84 0.90 0.89 1.00 1.10 1.06 0.98 0.95 0.86 0.80 0.80
1.42 1.84 1.93 0.79 0.60 1.09 1.33 0.99 0.96 1.01 0.97 0.97 0.97 0.93 0.92 1.03 1.25 1.36 1.51 1.41 1.27 1.23 1.20 1.16 1.15 1.23 1.23 1.13 0.95 0.83 0.80 0.82 0.86 0.85 0.81 0.81 0.96 1.03 0.95 0.92 0.91 0.88 0.85 0.79
1.49 1.68 1.25 0.71 0.71 0.75 0.76 0.75 0.76 0.81 0.80 0.82 0.93 0.96 0.88 0.98 1.20 1.36 1.45 1.39 1.31 1.22 1.15 1.09 1.07 1.12 1.12 0.96 0.76 0.70 0.76 0.86 0.88 0.81 0.87 0.88 0.86 0.89 0.91 0.93 0.86 0.79 0.79 0.74
1.23 1.20 0.89 0.69 0.60 0.55 0.58 0.62 0.64 0.72 0.76 0.80 0.98 1.03 0.95 0.99 1.14 1.30 1.32 1.20 1.10 1.03 1.00 0.92 0.85 0.82 0.80 0.67 0.62 0.68 0.80 0.86 0.85 0.85 0.93 0.93 0.85 0.74 0.72 0.75 0.73 0.68 0.67 0.63
1.51 1.35 1.04 0.76 0.62 0.61 0.58 0.59 0.64 0.73 0.77 0.83 0.89 0.95 0.96 0.98 1.03 1.06 1.08 1.06 0.98 0.91 0.83 0.71 0.66 0.62 0.56 0.52 0.56 0.67 0.73 0.79 0.80 0.79 0.84 0.90 0.81 0.67 0.61 0.55 0.49 0.49 0.50 0.49
1.83 1.48 1.34 1.04 0.77 0.75 0.73 0.71 0.71 0.69 0.66 0.68 0.69 0.72 0.79 0.80 0.82 0.84 0.91 0.93 0.93 0.84 0.74 0.65 0.62 0.58 0.53 0.49 0.53 0.65 0.69 0.67 0.63 0.65 0.69 0.73 0.74 0.65 0.47 0.32 0.26 0.24 0.26 0.29
1.43 1.17 1.07 0.99 0.86 0.81 0.73 0.59 0.53 0.52 0.49 0.52 0.57 0.60 0.60 0.58 0.61 0.66 0.73 0.72 0.73 0.70 0.62 0.63 0.61 0.54 0.51 0.48 0.48 0.56 0.65 0.62 0.54 0.53 0.58 0.62 0.62 0.69 0.63 0.41 0.22 0.16 0.16 0.20
0.99 0.94 0.89 0.73 0.58 0.47 0.39 0.34 0.35 0.38 0.37 0.35 0.39 0.43 0.45 0.44 0.48 0.53 0.61 0.59 0.55 0.52 0.51 0.55 0.58 0.50 0.44 0.45 0.49 0.50 0.50 0.46 0.48 0.55 0.54 0.51 0.49 0.50 0.54 0.60 0.53 0.39 0.25 0.22
0.67 0.67 0.59 0.43 0.32 0.32 0.28 0.27 0.33 0.36 0.34 0.34 0.32 0.35 0.35 0.38 0.42 0.45 0.51 0.50 0.47 0.46 0.47 0.48 0.52 0.50 0.40 0.40 0.45 0.49 0.47 0.45 0.47 0.47 0.45 0.43 0.40 0.39 0.40 0.47 0.51 0.51 0.45 0.37
0.45 0.44 0.41 0.36 0.33 0.32 0.32 0.32 0.36 0.37 0.34 0.33 0.34 0.34 0.32 0.31 0.31 0.38 0.46 0.47 0.48 0.51 0.51 0.48 0.45 0.40 0.36 0.35 0.38 0.43 0.40 0.36 0.37 0.39 0.35 0.34 0.36 0.38 0.38 0.42 0.46 0.48 0.51 0.50
0.44 0.40 0.39 0.41 0.39 0.36 0.34 0.34 0.36 0.35 0.34 0.31 0.28 0.27 0.26 0.26 0.30 0.37 0.42 0.42 0.44 0.50 0.52 0.50 0.42 0.34 0.32 0.31 0.35 0.36 0.35 0.34 0.34 0.33 0.30 0.30 0.33 0.35 0.33 0.37 0.41 0.44 0.41 0.42
0.43 0.41 0.38 0.43 0.43 0.39 0.33 0.32 0.33 0.32 0.32 0.28 0.24 0.24 0.26 0.30 0.33 0.37 0.38 0.39 0.40 0.45 0.47 0.46 0.39 0.33 0.32 0.33 0.34 0.32 0.31 0.32 0.31 0.28 0.28 0.28 0.29 0.30 0.31 0.34 0.38 0.43 0.42 0.42
0.40 0.39 0.32 0.31 0.33 0.35 0.32 0.31 0.29 0.28 0.28 0.28 0.28 0.29 0.29 0.32 0.31 0.32 0.34 0.39 0.43 0.47 0.43 0.37 0.36 0.35 0.35 0.33 0.34 0.31 0.31 0.33 0.31 0.28 0.27 0.29 0.30 0.31 0.32 0.35 0.36 0.40 0.44 0.46
0.35 0.37 0.33 0.29 0.27 0.30 0.34 0.33 0.28 0.26 0.28 0.31 0.32 0.33 0.35 0.34 0.30 0.31 0.34 0.41 0.46 0.40 0.33 0.31 0.31 0.32 0.32 0.34 0.37 0.34 0.32 0.31 0.31 0.32 0.33 0.34 0.35 0.34 0.31 0.28 0.31 0.34 0.38 0.40
0.35 0.36 0.33 0.31 0.31 0.31 0.33 0.35 0.34 0.31 0.33 0.33 0.36 0.44 0.44 0.37 0.32 0.34 0.36 0.40 0.37 0.33 0.29 0.28 0.28 0.30 0.30 0.31 0.32 0.31 0.31 0.32 0.33 0.33 0.32 0.32 0.33 0.31 0.28 0.28 0.29 0.29 0.30 0.32
0.39 0.40 0.33 0.29 0.32 0.34 0.34 0.36 0.37 0.34 0.34 0.37 0.41 0.44 0.42 0.37 0.35 0.35 0.34 0.36 0.35 0.31 0.30 0.28 0.28 0.30 0.30 0.27 0.24 0.27 0.28 0.28 0.31 0.31 0.29 0.28 0.29 0.27 0.25 0.26 0.29 0.29 0.27 0.29
0.44 0.40 0.32 0.29 0.30 0.33 0.31 0.31 0.33 0.35 0.37 0.39 0.40 0.38 0.37 0.35 0.35 0.36 0.36 0.33 0.32 0.30 0.28 0.28 0.29 0.28 0.24 0.21 0.23 0.25 0.24 0.25 0.26 0.26 0.25 0.23 0.25 0.26 0.26 0.26 0.27 0.27 0.27 0.28
0.46 0.40 0.35 0.29 0.28 0.32 0.37 0.38 0.35 0.35 0.38 0.40 0.39 0.37 0.36 0.35 0.34 0.31 0.30 0.32 0.32 0.28 0.25 0.23 0.24 0.21 0.19 0.17 0.19 0.22 0.24 0.24 0.22 0.22 0.22 0.22 0.24 0.27 0.26 0.23 0.24 0.24 0.24 0.24
0.54 0.47 0.38 0.35 0.37 0.39 0.40 0.41 0.40 0.40 0.41 0.42 0.40 0.38 0.37 0.36 0.35 0.29 0.28 0.31 0.34 0.29 0.24 0.20 0.19 0.18 0.17 0.16 0.16 0.17 0.18 0.20 0.21 0.20 0.19 0.20 0.21 0.22 0.22 0.21 0.23 0.24 0.26 0.27
0.65 0.59 0.51 0.46 0.41 0.38 0.38 0.42 0.44 0.44 0.46 0.47 0.45 0.41 0.38 0.34 0.29 0.27 0.28 0.30 0.31 0.30 0.24 0.20 0.20 0.20 0.18 0.17 0.17 0.17 0.16 0.16 0.16 0.16 0.18 0.19 0.17 0.16 0.16 0.17 0.20 0.21 0.21 0.23
0.74 0.70 0.65 0.53 0.42 0.38 0.41 0.47 0.47 0.43 0.40 0.42 0.42 0.39 0.35 0.32 0.30 0.28 0.29 0.30 0.29 0.27 0.24 0.22 0.23 0.23 0.22 0.19 0.21 0.21 0.20 0.18 0.17 0.18 0.17 0.17 0.16 0.17 0.16 0.15 0.17 0.19 0.20 0.20